Weather History for Cairns, QU

Change the Weather History Date:

Saturday, April 6, 2013

  Actual Average Record
Temperature  
Mean Temperature 77 °F -  
Max Temperature 83 °F 84 °F 91 °F (2009)
Min Temperature 71 °F 70 °F 64 °F (2008)
Cooling Degree Days 12    
Growing Degree Days 27 (Base 50)    
Moisture  
Dew Point 69 °F    
Average Humidity 79    
Maximum Humidity 94    
Minimum Humidity 56    
Precipitation  
Precipitation 0.16 in 0.26 in - ()
Sea Level Pressure  
Sea Level Pressure 29.91 in    
Wind  
Wind Speed 11 mph ()    
Max Wind Speed 15 mph    
Max Gust Speed -    
Visibility 6.4 miles    
Events Rain    
Averages and records for this station are not official NWS values.
T = Trace of Precipitation, MM = Missing Value Source: Averaged Metar Reports

Daily Weather History Graph

Daily Weather History Graph

Search for Another Location

Airport:

Trip Planner

Search our weather history database for the weather conditions in past years. The results will help you decide how hot, cold, wet, or windy it might be!

Date:

Astronomy

Apr. 06, 2013 Rise Set
Actual Time 6:23 AM EST 6:14 PM EST
Civil Twilight 6:02 AM EST 6:36 PM EST
Nautical Twilight 5:36 AM EST 7:01 PM EST
Astronomical Twilight 5:11 AM EST 7:26 PM EST
Moon 2:24 AM EST (4/6) 3:11 PM EST (4/6)
Length of Visible Light 12h 34m
Length of Day
11h 51m
Waning Crescent, 20% of the Moon is Illuminated
Apr 6
Waning Crescent
Apr 10
New
Apr 18
First Quarter
Apr 26
Full
May 2
Last Quarter

Hourly Weather History & Observations

Time (EST) Temp. Heat Index Dew Point Humidity Pressure Visibility Wind Dir Wind Speed Gust Speed Precip Events Conditions
12:00 AM 73 °F - 70 °F 86% 29.96 in - South 8.1 mph - -   Overcast
12:00 AM 73.4 °F - 69.8 °F 88% 29.95 in 6.2 mi South 8.1 mph - N/A   Overcast
12:30 AM 73.4 °F - 68.0 °F 83% 29.95 in 6.2 mi South 10.4 mph - N/A   Scattered Clouds
1:00 AM 75 °F - 67 °F 71% 29.95 in - South 11.5 mph - -  
1:00 AM 75.2 °F - 68.0 °F 78% 29.92 in 6.2 mi South 11.5 mph - N/A   Partly Cloudy
1:30 AM 75.2 °F - 68.0 °F 78% 29.92 in 6.2 mi South 13.8 mph - N/A   Partly Cloudy
2:00 AM 73.4 °F - 68.0 °F 83% 29.92 in 6.2 mi South 12.7 mph - N/A   Partly Cloudy
2:30 AM 75.2 °F - 68.0 °F 78% 29.89 in 5.6 mi South 12.7 mph - N/A Rain Light Rain Showers
3:00 AM 74 °F - 68 °F 77% 29.89 in - South 12.7 mph - -  
3:00 AM 73.4 °F - 68.0 °F 83% 29.89 in 6.2 mi South 12.7 mph - N/A   Partly Cloudy
3:30 AM 75.2 °F - 68.0 °F 78% 29.89 in 5.0 mi South 15.0 mph - N/A Rain Light Rain Showers
4:00 AM 73 °F - 69 °F 82% 29.89 in - South 13.8 mph - -  
4:00 AM 73.4 °F - 68.0 °F 83% 29.86 in 5.0 mi South 13.8 mph - N/A Rain Light Rain Showers
4:30 AM 73.4 °F - 68.0 °F 83% 29.89 in 6.2 mi South 13.8 mph - N/A   Overcast
5:00 AM 73.4 °F - 68.0 °F 83% 29.89 in 6.2 mi South 12.7 mph - N/A Rain Light Rain Showers
5:30 AM 73.4 °F - 69.8 °F 88% 29.89 in 6.2 mi South 9.2 mph - N/A   Overcast
6:00 AM 73 °F - 69 °F 84% 29.90 in 12 mi South 11.5 mph - - Rain Light Rain Showers
6:00 AM 73.4 °F - 69.8 °F 88% 29.89 in 6.2 mi South 11.5 mph - N/A   Scattered Clouds
7:00 AM 74 °F - 69 °F 81% 29.93 in - South 11.5 mph - -  
7:00 AM 75.2 °F - 69.8 °F 83% 29.92 in 6.2 mi South 11.5 mph - N/A   Scattered Clouds
7:30 AM 75.2 °F - 69.8 °F 83% 29.92 in 6.2 mi South 11.5 mph - N/A   Scattered Clouds
8:00 AM 75.2 °F - 69.8 °F 83% 29.92 in 6.2 mi South 13.8 mph - N/A   Mostly Cloudy
8:12 AM 75.2 °F - 69.8 °F 83% 29.95 in 6.2 mi South 10.4 mph - N/A Rain Light Rain Showers
8:30 AM 73.4 °F - 71.6 °F 94% 29.95 in 3.1 mi SE 13.8 mph - N/A Rain Light Rain Showers
8:47 AM 73.4 °F - 71.6 °F 94% 29.95 in 6.2 mi South 9.2 mph - N/A   Mostly Cloudy
9:00 AM 74 °F - 71 °F 88% 29.96 in 9 mi South 10.4 mph - - Rain Light Rain Showers
9:00 AM 75.2 °F - 71.6 °F 89% 29.95 in 6.2 mi South 10.4 mph - N/A   Mostly Cloudy
9:09 AM 75.2 °F - 71.6 °F 89% 29.98 in 3.1 mi SSE 12.7 mph - N/A Rain Light Rain Showers
9:30 AM 73.4 °F - 71.6 °F 94% 29.98 in 6.2 mi South 9.2 mph - N/A   Mostly Cloudy
10:00 AM 77 °F - 68 °F 67% 29.97 in - South 9.2 mph - -  
10:00 AM 77.0 °F - 68.0 °F 74% 29.95 in 6.2 mi South 9.2 mph - N/A   Scattered Clouds
10:14 AM 77.0 °F - 68.0 °F 74% 29.95 in 6.2 mi South 10.4 mph - N/A   Mostly Cloudy
10:18 AM 75.2 °F - 69.8 °F 83% 29.95 in 1.9 mi South 10.4 mph - N/A Rain Light Rain Showers
10:30 AM 73.4 °F - 68.0 °F 83% 29.95 in 6.2 mi South 12.7 mph - N/A   Scattered Clouds
11:00 AM 77.0 °F - 68.0 °F 74% 29.95 in 6.2 mi South 12.7 mph - N/A   Mostly Cloudy
11:30 AM 77.0 °F - 71.6 °F 83% 29.92 in 6.2 mi South 12.7 mph - N/A   Mostly Cloudy
12:00 PM 78 °F - 70 °F 70% 29.92 in 12 mi South 11.5 mph - -   Partly Cloudy
12:00 PM 78.8 °F - 69.8 °F 74% 29.92 in 6.2 mi South 11.5 mph - N/A   Scattered Clouds
12:30 PM 78.8 °F - 69.8 °F 74% 29.89 in 6.2 mi South 9.2 mph - N/A   Mostly Cloudy
1:00 PM 78 °F - 72 °F 78% 29.90 in - SE 12.7 mph - -  
1:00 PM 78.8 °F - 73.4 °F 83% 29.89 in 6.2 mi SE 12.7 mph - N/A   Mostly Cloudy
1:30 PM 80.6 °F 84.6 °F 71.6 °F 74% 29.89 in 6.2 mi SSE 15.0 mph - N/A   Scattered Clouds
2:00 PM 78.8 °F - 69.8 °F 74% 29.86 in 6.2 mi South 12.7 mph - N/A   Scattered Clouds
2:30 PM 82.4 °F 87.2 °F 71.6 °F 70% 29.86 in 6.2 mi South 13.8 mph - N/A   Scattered Clouds
3:00 PM 82 °F - 70 °F 60% 29.86 in 19 mi South 11.5 mph - -   Partly Cloudy
3:00 PM 82.4 °F 86.3 °F 69.8 °F 66% 29.86 in 6.2 mi South 11.5 mph - N/A   Mostly Cloudy
3:30 PM 82.4 °F 86.3 °F 69.8 °F 66% 29.86 in 6.2 mi SSE 15.0 mph - N/A   Scattered Clouds
4:00 PM 83 °F - 70 °F 56% 29.86 in - SE 15.0 mph - -  
4:00 PM 82.4 °F 86.3 °F 69.8 °F 66% 29.86 in 6.2 mi SE 15.0 mph - N/A   Scattered Clouds
4:30 PM 80.6 °F 83.9 °F 69.8 °F 70% 29.86 in 6.2 mi South 10.4 mph - N/A   Partly Cloudy
5:00 PM 80.6 °F 83.9 °F 69.8 °F 70% 29.86 in 6.2 mi SSE 12.7 mph - N/A   Scattered Clouds
5:30 PM 75.2 °F - 73.4 °F 94% 29.86 in 6.2 mi SSW 5.8 mph - N/A   Mostly Cloudy
6:00 PM 77 °F - 70 °F 73% 29.88 in - SSE 15.0 mph - -   Overcast
6:00 PM 77.0 °F - 69.8 °F 78% 29.86 in 6.2 mi SSE 15.0 mph - N/A   Scattered Clouds
6:30 PM 75.2 °F - 69.8 °F 83% 29.86 in 6.2 mi South 10.4 mph - N/A   Mostly Cloudy
7:00 PM 76 °F - 69 °F 74% 29.90 in - SSE 10.4 mph - -  
7:00 PM 75.2 °F - 69.8 °F 83% 29.89 in 6.2 mi SSE 10.4 mph - N/A   Mostly Cloudy
7:30 PM 75.2 °F - 69.8 °F 83% 29.89 in 6.2 mi South 8.1 mph - N/A   Mostly Cloudy
8:00 PM 75.2 °F - 69.8 °F 83% 29.89 in 6.2 mi South 9.2 mph - N/A   Scattered Clouds
8:30 PM 75.2 °F - 68.0 °F 78% 29.92 in 6.2 mi South 10.4 mph - N/A   Scattered Clouds
9:00 PM 75 °F - 68 °F 74% 29.93 in - South 10.4 mph - -  
9:00 PM 75.2 °F - 68.0 °F 78% 29.92 in 6.2 mi South 10.4 mph - N/A   Partly Cloudy
9:30 PM 75.2 °F - 68.0 °F 78% 29.92 in 6.2 mi South 10.4 mph - N/A   Scattered Clouds
10:00 PM 74 °F - 69 °F 79% 29.94 in - South 10.4 mph - -  
10:00 PM 73.4 °F - 69.8 °F 88% 29.92 in 6.2 mi South 10.4 mph - N/A   Partly Cloudy
10:30 PM 75.2 °F - 68.0 °F 78% 29.92 in 6.2 mi South 11.5 mph - N/A   Scattered Clouds
11:00 PM 73.4 °F - 68.0 °F 83% 29.92 in 6.2 mi South 9.2 mph - N/A   Partly Cloudy
11:30 PM 75.2 °F - 68.0 °F 78% 29.89 in 6.2 mi South 10.4 mph - N/A   Scattered Clouds